Zurück zum Katalog

FENGYUN 1C DEB

AktivSSO
NORAD 31836·DEBRIS·🇨🇳 China

Gestartet May 10, 1999 von Taiyuan Satellite Launch Center

Loading…

Nächste Überflüge (nächste 24 Stunden)

TLE

AktuellSource: Space-Track

Epoche: Sep 14, 2026, 08:22 UTC

1 31836U 99025CJA 26257.34876672  .00002658  00000-0  13926-2 0  9995
2 31836  98.6243 216.5077 0114437  52.3873 308.7621 14.11761972652909

Verfolge FENGYUN 1C DEB in Echtzeit mit AllMySat

Download on the App Store